[[{"header":{"parameterUnit":"m.s-1","parameterCategory":1,"la1":30.2991,"la2":30.254,"lo1":-89.0895,"lo2":-89.0444,"dy":0.0017,"dx":0.0017,"nx":28,"ny":28,"refTime":"2025-04-11T21:00:00:Z","depth":0,"parameterNumber":2,"parameterNumberName":"U-component_of_WINDS"},"data":[0,0,0,0,0,0,0,0,0,0,0,0,0,0,0,0,0,0,0,0,0,0,0,0,0,0,0,0,0,0,0,0,0,0,0,0,0,0,0,0,0,0,0,0,0,0,0,0,0,0,0,0,0,0,0,0,0,0,1.9579,1.9579,0,1.9547,1.9547,1.9546,1.9483,1.9482,1.9481,1.948,1.9448,1.9448,1.9448,0,0,0,0,0,0,0,0,0,0,0,0,0,1.9587,1.9587,1.9579,1.9579,1.9578,1.9547,1.9547,1.9546,1.9483,1.9482,1.948,1.9479,1.9447,1.9448,1.9448,0,0,0,0,0,0,0,0,0,0,0,0,0,1.9572,1.9587,1.9579,1.9543,1.954,1.9547,1.9547,1.9546,1.9484,1.9482,1.948,1.9478,1.9447,1.9448,1.9448,1.9489,0,0,1.945,1.945,0,0,0,0,0,0,0,0,1.9573,1.9572,1.9549,1.9546,1.9542,1.9517,1.9538,1.9527,1.9484,1.9505,1.948,1.9477,1.9472,1.9471,1.9469,1.9487,1.9486,1.945,1.945,1.945,1.945,0,0,0,0,0,0,0,1.9574,1.9573,1.9566,1.9549,1.9544,1.9529,1.9525,1.9535,1.95,1.9503,1.9498,1.9495,1.947,1.9468,1.9468,1.9485,1.945,1.945,1.945,1.9451,1.9537,1.9539,0,0,0,0,0,0,1.958,1.9574,1.9567,1.9565,1.9553,1.953,1.9526,1.9527,1.9499,1.9493,1.9497,1.9493,1.9469,1.9467,1.9466,1.9513,1.945,1.9451,1.9451,1.9535,1.9538,1.954,0,0,0,0,0,0,1.9581,1.958,1.9569,1.9569,1.9566,1.9532,1.9534,1.9527,1.9526,1.9495,1.9488,1.9502,1.9467,1.9466,1.9484,1.9511,1.9451,1.9451,1.9533,1.9536,1.9539,1.9607,0,0,0,0,0,0,1.9581,1.9581,1.9595,1.9569,1.9566,1.9587,1.9536,1.9528,1.9527,1.9521,1.9498,1.9492,1.9465,1.9484,1.9484,1.9511,1.9452,1.953,1.9534,1.9538,1.9602,1.9612,1.962,0,0,0,0,0,1.9582,1.9616,1.9596,1.9596,1.9584,1.9588,1.9587,1.9555,1.9529,1.9544,1.9524,1.9493,1.9508,1.9486,1.9486,1.9513,1.9528,1.9533,1.9537,1.9598,1.961,1.962,0,0,0,0,0,0,1.9646,1.9611,1.959,1.9616,1.9606,1.9578,1.9595,1.9569,1.9565,1.956,1.9521,1.9516,1.954,1.9528,1.9505,1.9552,1.9513,1.9518,1.9559,1.957,1.9579,1.9582,1.9452,0,0,0,0,0,1.9663,1.9669,1.9639,1.9665,1.9661,1.963,1.963,1.9607,1.9595,1.959,1.9571,1.9561,1.9563,1.9566,1.9566,1.9599,1.9594,1.9618,1.9627,1.9635,1.964,1.9659,1.9669,1.9555,1.9555,1.9555,0,0,1.9698,1.968,1.9687,1.9678,1.9667,1.9675,1.9626,1.9636,1.9642,1.9591,1.9608,1.9594,1.958,1.9607,1.9618,1.9597,1.967,1.9641,1.9647,1.9648,1.9664,1.9675,1.9685,1.9558,1.9557,1.9557,0,0,1.9768,1.9754,1.9775,1.9766,1.975,1.9729,1.9734,1.971,1.9699,1.9715,1.9678,1.9684,1.9689,1.9681,1.9677,1.9745,1.9717,1.9746,1.9794,1.9813,1.9822,1.983,1.9856,1.9865,1.9751,1.9751,1.9751,0,1.9814,1.9825,1.979,1.9803,1.9801,1.9755,1.9777,1.9769,1.9755,1.9754,1.9732,1.9738,1.9725,1.975,1.9767,1.9765,1.977,1.9749,1.9823,1.9831,1.9838,1.9862,1.9872,1.9755,1.9755,1.9754,1.9754,0,1.9883,1.9891,1.991,1.9898,1.9898,1.9915,1.9884,1.9888,1.9865,1.9846,1.9864,1.9847,1.9844,1.9848,1.9825,1.987,1.9858,1.983,1.9791,1.9853,1.9875,1.9884,1.9761,1.9759,1.9758,1.9757,0,0,1.9993,1.9961,1.9969,1.9963,1.9943,1.9949,1.9965,1.9962,1.9967,1.9958,1.9972,1.9977,1.9951,1.9947,1.9923,1.9939,1.9997,1.9909,1.9908,1.9928,2.0047,2.007,2.0081,1.9977,1.9979,1.998,2.0049,0,2.0059,2.0084,2.0054,2.0086,2.0094,2.0051,2.0065,2.0054,2.0038,2.0042,2.0024,2.0029,1.9994,1.9991,2.0005,1.9987,2.002,1.9981,1.9991,1.9991,1.9997,2.0093,2.0116,2.0182,2.0057,2.0059,2.006,0,2.014,2.0136,2.0169,2.0148,2.015,2.0163,2.0159,2.0163,2.0151,2.0138,2.0134,2.0106,2.0121,2.0082,2.0103,2.0077,2.0079,2.007,2.0072,2.0073,2.0031,2.0098,2.0202,2.0213,2.0073,2.0072,2.0071,0,2.0219,2.0221,2.0242,2.0238,2.0213,2.0224,2.0214,2.02,2.0201,2.0197,2.0197,2.0195,2.0195,2.0194,2.0166,2.014,2.0191,2.015,2.0182,2.0183,2.0196,2.0196,2.0304,2.0195,2.0195,2.0194,2.0194,0,2.0297,2.0319,2.0277,2.029,2.0314,2.0279,2.0304,2.029,2.0278,2.0288,2.025,2.0261,2.0222,2.0229,2.0207,2.0229,2.0228,2.0219,2.0213,2.0224,2.0225,2.0226,2.0221,2.0197,2.0196,2.0196,2.0195,0,2.039,2.0362,2.0382,2.0357,2.0351,2.0371,2.035,2.0361,2.0342,2.0355,2.0357,2.0327,2.0333,2.0304,2.0305,2.029,2.0324,2.031,2.0329,2.0325,2.036,2.0358,2.0474,2.0488,2.0368,2.0369,2.037,0,2.0442,2.0459,2.0436,2.044,2.0432,2.0439,2.044,2.0406,2.0408,2.0396,2.0409,2.0412,2.0412,2.0424,2.0403,2.0404,2.039,2.0431,2.039,2.0401,2.0393,2.0393,2.0396,2.044,2.0441,2.0443,2.0444,0,2.0539,2.0525,2.0527,2.0525,2.0527,2.0524,2.0518,2.0524,2.0487,2.0492,2.0498,2.0498,2.0499,2.0503,2.05,2.049,2.0462,2.0456,2.0464,2.0476,2.0487,2.0484,2.0354,2.0454,2.0453,2.0452,2.0452,2.0451,2.0615,2.0628,2.0615,2.0619,2.0611,2.0607,2.0617,2.0599,2.0603,2.0601,2.0581,2.0591,2.0579,2.0572,2.0565,2.0573,2.0554,2.0565,2.0568,2.0572,2.0579,2.0484,2.0572,2.0572,2.0571,2.0571,2.0571,0,2.0712,2.0701,2.0705,2.0699,2.0702,2.0674,2.0666,2.0672,2.0681,2.0672,2.0674,2.0681,2.0685,2.0664,2.0665,2.0676,2.0663,2.0678,2.0678,2.0676,2.0595,2.0589,2.0688,2.0688,2.0688,2.0688,2.0688,2.0688,2.0763,2.0784,2.0769,2.0786,2.0775,2.0785,2.0783,2.078,2.0773,2.0783,2.0786,2.0772,2.0759,2.0759,2.0762,2.0755,2.0759,2.0778,2.0768,2.0693,2.0682,2.0671,2.0665,2.0779,2.0779,2.0849,2.0849,2.085]},{"header":{"parameterUnit":"m.s-1","parameterCategory":1,"la1":30.2991,"la2":30.254,"lo1":-89.0895,"lo2":-89.0444,"dy":0.0017,"dx":0.0017,"nx":28,"ny":28,"refTime":"2025-04-11T21:00:00:Z","depth":0,"parameterNumber":3,"parameterNumberName":"V-component_of_WINDS"},"data":[0,0,0,0,0,0,0,0,0,0,0,0,0,0,0,0,0,0,0,0,0,0,0,0,0,0,0,0,0,0,0,0,0,0,0,0,0,0,0,0,0,0,0,0,0,0,0,0,0,0,0,0,0,0,0,0,0,0,-2.6654,-2.6654,0,-2.6673,-2.6673,-2.6673,-2.6643,-2.6642,-2.6641,-2.664,-2.6659,-2.666,-2.6662,0,0,0,0,0,0,0,0,0,0,0,0,0,-2.6592,-2.6594,-2.6654,-2.6654,-2.6654,-2.6673,-2.6673,-2.6673,-2.6644,-2.6642,-2.6641,-2.664,-2.6658,-2.666,-2.6662,0,0,0,0,0,0,0,0,0,0,0,0,0,-2.6616,-2.6594,-2.6654,-2.6642,-2.6641,-2.6673,-2.6673,-2.6673,-2.6644,-2.6642,-2.6641,-2.6639,-2.6658,-2.666,-2.6662,-2.6706,0,0,-2.6669,-2.667,0,0,0,0,0,0,0,0,-2.6615,-2.6618,-2.6643,-2.6642,-2.6642,-2.6654,-2.6658,-2.6684,-2.6644,-2.6643,-2.664,-2.6639,-2.6659,-2.6661,-2.6667,-2.6707,-2.6708,-2.6669,-2.667,-2.6671,-2.6672,0,0,0,0,0,0,0,-2.6613,-2.6617,-2.6661,-2.6644,-2.6643,-2.6636,-2.6637,-2.6663,-2.6659,-2.6643,-2.6641,-2.6643,-2.6658,-2.6665,-2.6668,-2.6708,-2.6669,-2.6671,-2.6672,-2.6673,-2.6789,-2.6791,0,0,0,0,0,0,-2.6613,-2.6616,-2.6661,-2.6662,-2.6624,-2.6638,-2.664,-2.6652,-2.6659,-2.6658,-2.6645,-2.6642,-2.6662,-2.6665,-2.6668,-2.6723,-2.6671,-2.6673,-2.6674,-2.6787,-2.679,-2.6791,0,0,0,0,0,0,-2.6612,-2.6617,-2.666,-2.6638,-2.6643,-2.6641,-2.6654,-2.6653,-2.666,-2.666,-2.6659,-2.6653,-2.6661,-2.6665,-2.6698,-2.6723,-2.6674,-2.6676,-2.6785,-2.6788,-2.679,-2.6832,0,0,0,0,0,0,-2.661,-2.6617,-2.6633,-2.6639,-2.6645,-2.6689,-2.6656,-2.6654,-2.6664,-2.6661,-2.6668,-2.6668,-2.666,-2.6695,-2.67,-2.6725,-2.6678,-2.6783,-2.6786,-2.679,-2.6828,-2.6835,-2.6842,0,0,0,0,0,-2.6608,-2.6643,-2.6634,-2.664,-2.6665,-2.669,-2.6694,-2.6685,-2.6667,-2.6684,-2.6684,-2.6667,-2.6719,-2.6699,-2.6704,-2.673,-2.6781,-2.6785,-2.6789,-2.6825,-2.6834,-2.6842,0,0,0,0,0,0,-2.6639,-2.6643,-2.6634,-2.6671,-2.6681,-2.6685,-2.6706,-2.6694,-2.6709,-2.6705,-2.6694,-2.6695,-2.6731,-2.6734,-2.671,-2.6775,-2.6747,-2.6753,-2.6773,-2.6781,-2.6788,-2.6787,-2.668,0,0,0,0,0,-2.665,-2.6671,-2.6673,-2.6706,-2.6712,-2.6709,-2.6719,-2.6712,-2.6721,-2.6725,-2.6727,-2.6737,-2.6756,-2.6768,-2.6785,-2.6828,-2.6831,-2.6849,-2.6856,-2.6862,-2.6867,-2.6893,-2.6902,-2.6805,-2.6805,-2.6804,0,0,-2.6673,-2.6679,-2.6692,-2.6713,-2.6719,-2.6742,-2.6712,-2.6736,-2.6753,-2.6728,-2.6761,-2.6763,-2.6773,-2.6812,-2.6829,-2.6815,-2.6894,-2.6867,-2.6871,-2.6873,-2.6898,-2.6907,-2.6915,-2.6807,-2.6807,-2.6806,0,0,-2.6728,-2.6733,-2.6763,-2.6771,-2.6782,-2.678,-2.6787,-2.6794,-2.6795,-2.6827,-2.6811,-2.683,-2.6862,-2.6871,-2.688,-2.6941,-2.6928,-2.6947,-2.6983,-2.7008,-2.7016,-2.7023,-2.7047,-2.7056,-2.6952,-2.6952,-2.6952,0,-2.6755,-2.6788,-2.6779,-2.6806,-2.6816,-2.6797,-2.6828,-2.6836,-2.6852,-2.686,-2.6844,-2.6886,-2.6891,-2.6934,-2.6949,-2.6956,-2.6965,-2.6946,-2.7016,-2.7023,-2.7029,-2.7052,-2.7061,-2.6954,-2.6954,-2.6954,-2.6954,0,-2.6823,-2.6846,-2.6869,-2.6887,-2.69,-2.6928,-2.6925,-2.6939,-2.6932,-2.6932,-2.6967,-2.6972,-2.6992,-2.7001,-2.6993,-2.7043,-2.7035,-2.7018,-2.6989,-2.7041,-2.7063,-2.7071,-2.6958,-2.6957,-2.6956,-2.6956,0,0,-2.6896,-2.6911,-2.6919,-2.6929,-2.6941,-2.6959,-2.6987,-2.7007,-2.7022,-2.7033,-2.7058,-2.7087,-2.7073,-2.7083,-2.7076,-2.7098,-2.715,-2.7078,-2.7078,-2.7093,-2.7209,-2.7223,-2.7234,-2.7141,-2.7142,-2.7144,-2.7209,0,-2.6952,-2.7002,-2.6996,-2.7044,-2.7068,-2.7051,-2.7076,-2.7087,-2.7089,-2.7109,-2.711,-2.7132,-2.7109,-2.7116,-2.7137,-2.7139,-2.7173,-2.7134,-2.7165,-2.7166,-2.7165,-2.7244,-2.7259,-2.732,-2.7217,-2.7218,-2.7219,0,-2.7024,-2.7041,-2.7092,-2.7104,-2.7113,-2.7136,-2.7156,-2.7175,-2.7187,-2.7187,-2.72,-2.719,-2.722,-2.7191,-2.7234,-2.7208,-2.722,-2.7223,-2.7226,-2.7229,-2.7197,-2.7252,-2.7339,-2.7349,-2.7232,-2.7231,-2.723,0,-2.7075,-2.711,-2.7146,-2.7154,-2.7168,-2.7186,-2.7192,-2.7203,-2.7217,-2.7234,-2.7244,-2.7264,-2.7275,-2.7291,-2.7288,-2.7266,-2.7332,-2.7302,-2.7334,-2.7335,-2.735,-2.7349,-2.7442,-2.7355,-2.7355,-2.7354,-2.7354,0,-2.7139,-2.7172,-2.717,-2.7192,-2.7229,-2.7223,-2.726,-2.7264,-2.7275,-2.7299,-2.7285,-2.7307,-2.73,-2.7323,-2.732,-2.7358,-2.7362,-2.7364,-2.7363,-2.7366,-2.7366,-2.7375,-2.7372,-2.7357,-2.7356,-2.7356,-2.7355,0,-2.7203,-2.7203,-2.7242,-2.7253,-2.7257,-2.7283,-2.7293,-2.7315,-2.7316,-2.7347,-2.7354,-2.7356,-2.7382,-2.738,-2.7409,-2.7407,-2.7454,-2.7447,-2.745,-2.745,-2.7483,-2.7481,-2.7586,-2.7601,-2.7502,-2.7503,-2.7504,0,-2.7244,-2.727,-2.7285,-2.73,-2.7309,-2.7333,-2.7348,-2.7343,-2.7359,-2.7378,-2.7398,-2.7423,-2.7443,-2.7486,-2.749,-2.7513,-2.7508,-2.7544,-2.7511,-2.7515,-2.7512,-2.7511,-2.7515,-2.755,-2.7551,-2.7552,-2.7553,0,-2.732,-2.7319,-2.7341,-2.7365,-2.7383,-2.7401,-2.7417,-2.743,-2.7427,-2.7446,-2.7474,-2.749,-2.7521,-2.7547,-2.757,-2.7577,-2.7566,-2.7563,-2.7572,-2.7577,-2.7579,-2.7581,-2.747,-2.7561,-2.756,-2.756,-2.7559,-2.7559,-2.7375,-2.7398,-2.7413,-2.7439,-2.7451,-2.7468,-2.749,-2.7495,-2.7518,-2.7544,-2.754,-2.7572,-2.7586,-2.7616,-2.7625,-2.7651,-2.7638,-2.765,-2.7654,-2.7658,-2.7663,-2.7573,-2.7654,-2.7654,-2.7654,-2.7654,-2.7653,0,-2.7452,-2.7461,-2.7485,-2.751,-2.7531,-2.7519,-2.7537,-2.7556,-2.7584,-2.7599,-2.762,-2.7654,-2.768,-2.7687,-2.7713,-2.7732,-2.7727,-2.7739,-2.7738,-2.7741,-2.7671,-2.7662,-2.7742,-2.7742,-2.7742,-2.7742,-2.7742,-2.7742,-2.7494,-2.7533,-2.7536,-2.7582,-2.7591,-2.7623,-2.7635,-2.765,-2.7663,-2.7701,-2.7723,-2.7728,-2.7741,-2.7768,-2.7792,-2.7794,-2.7805,-2.7819,-2.7819,-2.7754,-2.7745,-2.7737,-2.7728,-2.7821,-2.7821,-2.7886,-2.7887,-2.7887]}]]